Regional Weather Roundup
Issued by NWS

Home | Current Version | Previous Version | Text Only | Print | Product List | Glossary Off
Versions: 1 2 3 4 5 6 7 8 9 10 11 12 13 14 15 16 17 18 19 20 21 22 23 24 25 26 27 28 29 30 31 32 33 34 35 36 37 38 39 40 41 42 43 44 45 46 47 48 49 50

000
ASUS44 KMEG 172100
RWRTN
TENNESSEE HOURLY STATE WEATHER ROUNDUP
NATIONAL WEATHER SERVICE MEMPHIS TN
400 PM CDT FRI APR 17 2015

TNZ002-004-019-021-049-052-054-088>092-172200-
WEST TENNESSEE

CITY           SKY/WX    TMP DP  RH WIND       PRES   REMARKS
MEMPHIS INTL   PTSUNNY   73  63  70 N7        29.98F
NWS MEMPHIS      N/A     70 N/A N/A MISG        N/A
JACKSON        CLOUDY    67  61  81 NE5       30.00F
DYERSBURG      CLOUDY    70  54  56 CALM      30.01F
UNION CITY     CLOUDY    70  32  24 NE5       29.99F
PARIS          PTSUNNY   72  61  68 NE5       30.01F
LEXINGTON      MOSUNNY   66  59  77 CALM      30.00F
SAVANNAH       CLOUDY    66  32  28 CALM      30.00F
$$

TNZ008-025-027-028-033-062-065-066-172200-
NORTH MIDDLE TENNESSEE

CITY           SKY/WX    TMP DP  RH WIND       PRES   REMARKS
NASHVILLE      CLOUDY    70  60  70 CALM      30.03F
CLARKSVILLE    CLOUDY    72  61  68 CALM      30.02F
COOKEVILLE     SUNNY     72  61  68 N3        30.02S
CROSSVILLE     CLOUDY    70  57  63 S7        30.05F
$$

TNZ061-075-076-078-094-096-097-172200-
SOUTH MIDDLE TENNESSEE

CITY           SKY/WX    TMP DP  RH WIND       PRES   REMARKS
FAYETTEVILLE   MOSUNNY   64  61  88 S3        30.02F
TULLAHOMA      CLOUDY    70  61  73 CALM      30.03F
WINCHESTER     MOSUNNY   66  61  82 E7        30.03F
MCMINNVILLE    MOSUNNY   73  63  68 VRB6      30.02F
COLUMBIA       CLOUDY    68  32  26 E3        30.01F
$$

TNZ017-018-042-046-047-172200-
NORTHEAST TENNESSEE

CITY           SKY/WX    TMP DP  RH WIND       PRES   REMARKS
TRI CITIES     CLOUDY    74  54  49 SW3       30.03F
ELIZABETHTON   PTCLDY    72  55  56 SW3       30.03F
$$

TNZ012-013-036-069-073-074-172200-
CENTRAL EAST TENNESSEE

CITY           SKY/WX    TMP DP  RH WIND       PRES   REMARKS
KNOXVILLE      CLOUDY    70  59  68 E3        30.03F
OAK RIDGE      CLOUDY    72  58  61 SE5       30.04F
GATLINBURG     PTCLDY    70  57  64 N3        30.03F
$$

TNZ083-085-099-172200-
SOUTHEAST TENNESSEE

CITY           SKY/WX    TMP DP  RH WIND       PRES   REMARKS
CHATTANOOGA    LGT RAIN  62  59  90 CALM      30.05F FOG
$$

SKY/WX REPORTED AS FAIR MEANS FEW OR NO CLOUDS BELOW
12 THOUSAND FEET.




USA.gov is the U.S. government's official web portal to all federal, state and local government web resources and services.